Regional Weather Roundup
Issued by NWS

Home | Current Version | Previous Version | Text Only | Print | Product List | Glossary On
Versions: 1 2 3 4 5 6 7 8 9 10 11 12 13 14 15 16 17 18 19 20 21 22 23 24 25 26 27 28 29 30 31 32 33 34 35 36 37 38 39 40 41 42 43 44 45 46 47 48 49 50
000
ASUS44 KBMX 300110
RWRAL

ALABAMA REGIONAL WEATHER ROUNDUP
NATIONAL WEATHER SERVICE BIRMINGHAM AL
800 PM CDT SAT AUG 29 2015

NOTE: "FAIR" INDICATES FEW OR NO CLOUDS BELOW 12,000 FEET
WITH NO SIGNIFICANT WEATHER AND/OR OBSTRUCTIONS TO VISIBILITY.

THE REMARK "TC" DENOTES TEMPERATURE IN DEGREES CELSIUS.

ALZ001>011-014-016>018-020-300200-
NORTH ALABAMA

CITY           SKY/WX    TMP DP  RH WIND       PRES   REMARKS
MUSCLE SHOALS  CLOUDY    72  68  87 E5        30.09R
HUNTSVILLE     CLOUDY    73  70  90 SE8       30.09F
DECATUR        CLOUDY    71  70  96 CALM      30.10S
HALEYVILLE     FAIR      69  69 100 CALM      30.11S
GADSDEN        CLOUDY    70  64  83 SE3       30.12S
$$

ALZ012-013-022-023-030>036-040>044-300200-
WEST CENTRAL ALABAMA

CITY           SKY/WX    TMP DP  RH WIND       PRES   REMARKS
TUSCALOOSA     CLOUDY    74  70  87 NE7       30.07R
$$

ALZ015-024>027-033>036-040>044-300200-
CENTRAL ALABAMA

CITY           SKY/WX    TMP DP  RH WIND       PRES   REMARKS
BIRMINGHAM     LGT RAIN  71  69  93 E6        30.11F
MONTGOMERY     LGT RAIN  75  72  90 CALM      30.09R
SHELBY CO ARPT CLOUDY    72  70  93 E5        30.10S
MAXWELL AFB    CLOUDY    73  71  93 N2        30.09R
GREENVILLE     LGT RAIN  71  69  93 E10       30.08F
$$

ALZ019-021-028-029-037-038-045>048-300200-
EAST CENTRAL ALABAMA

CITY           SKY/WX    TMP DP  RH WIND       PRES   REMARKS
ANNISTON       CLOUDY    71  69  93 CALM      30.13R
ALEXANDER CITY CLOUDY    74  72  93 CALM      30.12R
AUBURN         CLOUDY    71  69  93 NE6       30.13R
$$

ALZ051>064-300200-
SOUTHWEST ALABAMA

CITY           SKY/WX    TMP DP  RH WIND       PRES   REMARKS
MOBILE         MOCLDY    79  72  79 SE5       30.03R
BROOKLEY FIELD MOCLDY    81  71  71 S6        30.03R
EVERGREEN      CLOUDY    74  70  87 E10       30.06F
$$

ALZ049-050-065>069-300200-
SOUTHEAST ALABAMA

CITY           SKY/WX    TMP DP  RH WIND       PRES   REMARKS
DOTHAN         RAIN      74  70  87 NW8       30.10S
OZARK          MOCLDY    74  70  87 W6        30.07S
TROY           HVY RAIN  72  71  97 SW5       30.11R FOG
EUFAULA        HVY RAIN  74  72  93 NW6       30.06S FOG
$$


USA.gov is the U.S. government's official web portal to all federal, state and local government web resources and services.